Voltar ao catálogo

IRIDIUM 36

AtivoComunicaçõesPO
NORAD 24967·PAYLOAD·🇺🇸 United States

Lançado Sep 27, 1997 de Vandenberg Space Force Base

Loading…

Próximas Passagens (próximas 24 horas)

TLE

AtualizadoSource: Space-Track

Época: Sep 14, 2026, 05:55 UTC

1 24967U 97056C   26257.24686773  .00000264  00000-0  80854-4 0  9991
2 24967  86.4018 342.1008 0002184  86.0268 274.1179 14.37989113517460

Acompanhe IRIDIUM 36 em tempo real com AllMySat

Download on the App Store